Miscellaneous Local Product
Issued by NWS Hastings, NE

Home | Current Version | Previous Version | Graphics & Text | Print | Product List | Glossary On
Versions: 1 2 3 4 5 6 7 8 9 10 11 12 13 14 15 16 17 18 19 20 21 22 23 24 25 26 27 28 29 30 31 32 33 34 35 36 37 38 39 40 41 42 43 44 45 46 47 48 49 50
000
AXUS43 KGID 240702
MISGRI

GID CWA HOURLY WEATHER ROUNDUP
NATIONAL WEATHER SERVICE HASTINGS NE
200 AM CDT TUE MAY 24 2016

NOTE: "FAIR" INDICATES FEW OR NO CLOUDS BELOW 12,000 FEET WITH NO
SIGNIFICANT WEATHER AND/OR OBSTRUCTIONS TO VISIBILITY.

...SOUTH CENTRAL NEBRASKA...

CITY           SKY/WX    TMP DP  RH WIND       PRES   REMARKS
GRAND ISLAND   CLEAR     61  59  93 S7        29.82F
HASTINGS       CLOUDY    62  59  90 SE6       29.81F
KEARNEY        CLEAR     57  55  94 SE5       29.82F
ORD            PTCLDY    57  56  96 CALM      29.80F FOG
YORK           CLOUDY    57  57 100 E7        29.81F
AURORA         CLOUDY    61  61  99 S5        29.81F
LEXINGTON      CLEAR     52  47  83 NW5       29.82F
HOLDREGE       CLOUDY    58  56  93 SE7       29.82S
HEBRON         CLOUDY    64  60  87 S5        29.83F

...NEBRASKA PANHANDLE...

CITY           SKY/WX    TMP DP  RH WIND       PRES   REMARKS
CHADRON        CLEAR     49  40  71 CALM      29.85F
ALLIANCE       CLEAR     37  36  96 SW3       29.89S
SCOTTSBLUFF    CLEAR     42  40  92 CALM      29.91R
SIDNEY         CLOUDY    41  38  89 NW8       29.90F

...WESTERN AND NORTH CENTRAL NEBRASKA...

CITY           SKY/WX    TMP DP  RH WIND       PRES   REMARKS
VALENTINE      CLEAR     52  43  71 SW10      29.82S
AINSWORTH      CLEAR     55  44  67 W7        29.82S
ONEILL         CLEAR     58  55  90 S6        29.81S
BROKEN BOW     CLEAR     49  45  86 NE3       29.82F
IMPERIAL       CLOUDY    55  46  71 NW8       29.85S
NORTH PLATTE   CLEAR     48  44  86 N3        29.83F
MCCOOK         CLEAR     55  45  68 NE6       29.80F

...EASTERN NEBRASKA...

CITY           SKY/WX    TMP DP  RH WIND       PRES   REMARKS
NORFOLK        CLEAR     59  58  96 SE3       29.80R FOG
SO SIOUX CITY    N/A    N/A N/A N/A MISG      29.80F
TEKAMAH        CLOUDY    64  60  87 S10       29.82R
COLUMBUS       CLEAR     57  48  72 SE6       29.83F
ALBION         CLEAR     58  55  91 CALM      29.81S
OMAHA EPPLEY   CLOUDY    64  60  87 S13       29.84F
OFFUTT AFB     CLOUDY    62  60  94 S1        29.83F
MILLARD        CLOUDY    61  59  92 S5        29.83S
LINCOLN        CLOUDY    60  58  92 E5        29.83F
NEBRASKA CITY  TSTM      61  61 100 CALM      29.87F
BEATRICE       CLOUDY    64  60  86 S5        29.85F
FALLS CITY     CLOUDY    68  61  78 S9        29.85F

...NORTHERN KANSAS...

CITY           SKY/WX    TMP DP  RH WIND       PRES   REMARKS
GOODLAND       PTCLDY    52  46  80 N5        29.84F
HILL CITY      TSTM      63  61  93 E6        29.82R FOG
NORTON         MOSUNNY   61  55  82 NE8       29.81R
PHILLIPSBURG   PTCLDY    64  64 100 SE13      29.85R
SMITH CENTER   CLOUDY    64  63  94 SE7       29.82S
BELOIT         CLOUDY    64  63  94 N13       29.82R
HAYS           CLOUDY    70  61  73 E6        29.80R
RUSSELL        CLOUDY    68  66  93 N6        29.81R
CONCORDIA      CLOUDY    66  63  90 E7        29.87R
SALINA         CLOUDY    70  66  87 S5        29.83R
TOPEKA         CLEAR     63  60  90 SE3       29.87S



USA.gov is the U.S. government's official web portal to all federal, state and local government web resources and services.